KIAB

McConnell Air Force Base

Airport
ICAO code
KIAB
Summary
ICAO Region
NAM
ICAO Territory
Location

Wichita, Kansas,

Elevation
1371 ft
Coordinates
37° 38' 1" N , 97° 15' 35" W
KCC
Airport CFIT
Altimeter Temperature Error Correction
Airport LOS
Parallel Runway Operation
Metar
KIAB 181455Z AUTO 01026G31KT 10SM -RA OVC007 10/08 A2995 RMK AO2 PK WND 03035/35 RAB15E16DZB16E17RAB17 PRESRR SLP139 P0000 60000 T01010082 52049 $

Description

McConnell Air Force Base is a United States Air Force installation located 6 km southeast of the central business district of Wichita, a city in Sedgwick County, Kansas.

Climatology

Humid “subtropical” climate (Köppen climate classification Cfa) - characterized by hot, humid summers and cool winters. Significant amounts of precipitation occur in all seasons with most falling during the summer. Winter snowfall is associated with large storms that the westerlies steer from west to east. Most summer rainfall occurs during thunderstorms.

Airport map

Aerial View

SKYbrary Partners:

Safety knowledge contributed by: